Change the Weather History Date:

Sunday, October 27, 2013

  Actual Average Record
Temperature  
Mean Temperature 4 °F -  
Max Temperature 12 °F 16 °F 59 °F (1996)
Min Temperature -4 °F 4 °F -11 °F (1997)
Degree Days  
Heating Degree Days 61    
Moisture  
Dew Point 2 °F    
Average Humidity 87    
Maximum Humidity 92    
Minimum Humidity 78    
Precipitation  
Precipitation 0.00 in - - ()
Sea Level Pressure  
Sea Level Pressure 29.60 in    
Wind  
Wind Speed 14 mph ()    
Max Wind Speed 23 mph    
Max Gust Speed -    
Visibility 5.7 miles    
Events Fog , Snow    
Averages and records for this station are not official NWS values.
T = Trace of Precipitation, MM = Missing Value Source: Averaged Metar Reports

Daily Weather History Graph

Daily Weather History Graph

Search for Another Location

Airport or City:

Trip Planner

Search our weather history database for the weather conditions in past years. The results will help you decide how hot, cold, wet, or windy it might be!

Date:

Astronomy

Oct. 27, 2013 Rise Set
Actual Time 9:22 AM EDT 4:53 PM EDT
Civil Twilight 8:17 AM EDT 5:58 PM EDT
Nautical Twilight 7:09 AM EDT 7:06 PM EDT
Astronomical Twilight 6:02 AM EDT 8:13 PM EDT
Moon No Moon Rise 4:06 PM EDT (10/27)
Length of Visible Light 9h 41m
Length of Day
7h 31m
Last Quarter, 44% of the Moon is Illuminated
Oct 27
Last Quarter
Nov 3
New
Nov 10
First Quarter
Nov 17
Full
Nov 25
Last Quarter

Hourly Weather History & Observations

Time (EDT) Temp. Windchill Dew Point Humidity Pressure Visibility Wind Dir Wind Speed Gust Speed Precip Events Conditions
12:00 AM 1.4 °F -15.3 °F -0.4 °F 92% 29.62 in 9.0 mi WNW 11.5 mph - N/A   Clear
12:20 AM 1.4 °F -16.1 °F -2.2 °F 85% 29.61 in 8.0 mi WNW 12.7 mph - N/A Snow Light Snow
12:38 AM 1.4 °F -15.3 °F -0.4 °F 92% 29.61 in 8.0 mi WNW 11.5 mph - N/A   Mostly Cloudy
1:00 AM 3.2 °F -13.9 °F 1.4 °F 92% 29.61 in 9.0 mi WNW 12.7 mph - N/A   Mostly Cloudy
1:10 AM 5.0 °F -11.6 °F 3.2 °F 92% 29.61 in 8.0 mi WNW 12.7 mph - N/A Snow Light Snow
1:27 AM 6.8 °F -8.6 °F 5.0 °F 92% 29.60 in 5.0 mi WNW 11.5 mph - N/A Snow Light Snow
1:52 AM 10.4 °F -4.8 °F 6.8 °F 85% 29.60 in 2.5 mi NW 12.7 mph - N/A Snow Light Snow
2:00 AM 10.4 °F -4.1 °F 8.6 °F 92% 29.60 in 2.5 mi NW 11.5 mph - N/A Snow Light Snow
2:41 AM 10.4 °F -4.8 °F 8.6 °F 92% 29.60 in 3.0 mi NW 12.7 mph - N/A Snow Light Snow
3:00 AM 10.4 °F -4.8 °F 8.6 °F 92% 29.60 in 3.0 mi NW 12.7 mph - N/A Snow Light Snow
3:11 AM 12.2 °F -2.5 °F 8.6 °F 85% 29.60 in 2.5 mi NW 12.7 mph - N/A Snow Light Snow
3:32 AM 10.4 °F -4.1 °F 8.6 °F 92% 29.60 in 2.0 mi NW 11.5 mph - N/A Snow Light Snow
3:38 AM 10.4 °F -4.1 °F 8.6 °F 92% 29.60 in 2.2 mi NW 11.5 mph - N/A Snow Light Snow
3:41 AM 10.4 °F -4.1 °F 8.6 °F 92% 29.60 in 3.0 mi NW 11.5 mph - N/A Snow Light Snow
3:56 AM 10.4 °F -4.8 °F 8.6 °F 92% 29.60 in 2.5 mi NW 12.7 mph - N/A Snow Light Snow
4:00 AM 10.4 °F -4.8 °F 8.6 °F 92% 29.60 in 2.5 mi NW 12.7 mph - N/A Snow Light Snow
4:03 AM 10.4 °F -4.8 °F 8.6 °F 92% 29.60 in 2.0 mi NW 12.7 mph - N/A Snow Light Snow
4:26 AM 10.4 °F -6.6 °F 8.6 °F 92% 29.60 in 2.0 mi NW 16.1 mph - N/A Snow Light Snow
4:32 AM 10.4 °F -6.0 °F 8.6 °F 92% 29.60 in 1.8 mi NW 15.0 mph - N/A Snow Light Snow
4:34 AM 10.4 °F -6.6 °F 8.6 °F 92% 29.60 in 2.2 mi NW 16.1 mph - N/A Snow Light Snow
4:36 AM 10.4 °F -6.6 °F 6.8 °F 85% 29.60 in 3.0 mi NW 16.1 mph - N/A Snow Light Snow
4:41 AM 8.6 °F -8.9 °F 6.8 °F 92% 29.60 in 6.0 mi NW 16.1 mph - N/A Snow Light Snow
5:00 AM 6.8 °F -10.7 °F 5.0 °F 92% 29.60 in 8.0 mi NW 15.0 mph - N/A Snow Light Snow
5:09 AM 6.8 °F -11.3 °F 5.0 °F 92% 29.60 in 5.0 mi NW 16.1 mph - N/A Snow Light Snow
5:16 AM 6.8 °F -11.8 °F 5.0 °F 92% 29.60 in 3.0 mi NW 17.3 mph - N/A Snow Light Snow
5:28 AM 5.0 °F -13.6 °F 3.2 °F 92% 29.60 in 5.0 mi NW 16.1 mph - N/A Snow Light Snow
5:29 AM 5.0 °F -13.6 °F 3.2 °F 92% 29.60 in 6.0 mi NW 16.1 mph - N/A Snow Light Snow
5:33 AM 5.0 °F -13.6 °F 3.2 °F 92% 29.60 in 5.0 mi WNW 16.1 mph - N/A Snow Light Snow
5:37 AM 5.0 °F -14.2 °F 3.2 °F 92% 29.60 in 4.0 mi NW 17.3 mph - N/A Snow Light Snow
5:42 AM 5.0 °F -13.6 °F 3.2 °F 92% 29.60 in 4.0 mi WNW 16.1 mph - N/A Snow Light Snow
5:46 AM 5.0 °F -13.0 °F 3.2 °F 92% 29.60 in 6.0 mi NW 15.0 mph - N/A Snow Light Snow
6:00 AM 5.0 °F -13.6 °F 3.2 °F 92% 29.60 in 5.0 mi WNW 16.1 mph - N/A Snow Light Snow
6:27 AM 6.8 °F -10.7 °F 3.2 °F 85% 29.59 in 2.5 mi NW 15.0 mph - N/A Snow Light Snow
6:29 AM 6.8 °F -11.3 °F 3.2 °F 85% 29.59 in 3.0 mi NW 16.1 mph - N/A Snow Light Snow
6:35 AM 6.8 °F -11.3 °F 3.2 °F 85% 29.59 in 6.0 mi NW 16.1 mph - N/A Snow Light Snow
7:00 AM 6.8 °F -11.8 °F 5.0 °F 92% 29.59 in 8.0 mi NW 17.3 mph - N/A Snow Light Snow
7:53 AM 8.6 °F -10.5 °F 5.0 °F 85% 29.59 in 9.0 mi NW 19.6 mph - N/A   Overcast
7:56 AM 8.6 °F -10.5 °F 5.0 °F 85% 29.59 in 9.0 mi NW 19.6 mph - N/A Snow Light Snow
8:00 AM 8.6 °F -10.0 °F 5.0 °F 85% 29.59 in 12.0 mi NW 18.4 mph - N/A Snow Light Snow
9:00 AM 6.8 °F -12.4 °F 3.2 °F 85% 29.59 in 8.0 mi NW 18.4 mph - N/A Snow Light Snow
10:00 AM 6.8 °F -13.4 °F 3.2 °F 85% 29.58 in 12.0 mi NW 20.7 mph - N/A Snow Light Snow
10:15 AM 6.8 °F -14.3 °F 3.2 °F 85% 29.57 in 2.5 mi NW 23.0 mph - N/A Snow Light Snow
10:40 AM 8.6 °F -11.4 °F 5.0 °F 85% 29.57 in 1.2 mi NW 21.9 mph - N/A Snow Light Snow
11:00 AM 8.6 °F -11.4 °F 5.0 °F 85% 29.57 in 3.0 mi NW 21.9 mph - N/A Snow Light Snow
12:00 PM 8.6 °F -11.0 °F 5.0 °F 85% 29.57 in 7.0 mi NW 20.7 mph - N/A Snow Light Snow
12:29 PM 8.6 °F -11.4 °F 5.0 °F 85% 29.57 in 1.5 mi NW 21.9 mph - N/A Snow Light Snow
1:00 PM 8.6 °F -11.0 °F 5.0 °F 85% 29.58 in 2.0 mi NW 20.7 mph - N/A Snow Light Snow
2:00 PM 8.6 °F -10.5 °F 5.0 °F 85% 29.57 in 1.5 mi NW 19.6 mph - N/A Snow Light Snow
2:23 PM 8.6 °F -11.0 °F 5.0 °F 85% 29.57 in 3.0 mi NW 20.7 mph - N/A Snow Light Snow
3:00 PM 6.8 °F -12.9 °F 3.2 °F 85% 29.58 in 4.0 mi NW 19.6 mph - N/A Snow Light Snow
4:00 PM 5.0 °F -16.7 °F 1.4 °F 85% 29.59 in 4.0 mi NNW 23.0 mph - N/A Snow Light Snow
4:31 PM 3.2 °F -18.1 °F -0.4 °F 85% 29.59 in 9.0 mi NW 20.7 mph - N/A Fog , Snow Light Snow
5:00 PM 1.4 °F -19.4 °F -4.0 °F 78% 29.59 in 12.0 mi NW 18.4 mph - N/A Snow Low Drifting Snow
6:00 PM -2.2 °F -23.5 °F -5.8 °F 85% 29.60 in 15.0 mi NW 17.3 mph - N/A Snow Ice Crystals
7:00 PM -4.0 °F -25.8 °F -9.4 °F 78% 29.61 in 15.0 mi NW 17.3 mph - N/A Snow Light Snow
8:00 PM -4.0 °F -25.2 °F -9.4 °F 78% 29.61 in 15.0 mi NW 16.1 mph - N/A Snow Light Snow
8:10 PM -4.0 °F -25.2 °F -7.6 °F 85% 29.62 in 9.0 mi NW 16.1 mph - N/A   Mostly Cloudy
8:43 PM -0.4 °F -21.2 °F -4.0 °F 85% 29.62 in 5.0 mi NW 17.3 mph - N/A   Overcast
8:44 PM -0.4 °F -21.2 °F -4.0 °F 85% 29.61 in 5.0 mi NW 17.3 mph - N/A Snow Light Snow
9:00 PM -0.4 °F -21.7 °F -4.0 °F 85% 29.61 in 4.0 mi NW 18.4 mph - N/A Snow Light Snow
9:26 PM -2.2 °F -22.9 °F -7.6 °F 78% 29.61 in 6.0 mi NW 16.1 mph - N/A Snow Light Snow
9:34 PM -2.2 °F -22.9 °F -7.6 °F 78% 29.62 in 9.0 mi NW 16.1 mph - N/A   Overcast
9:51 PM -4.0 °F -24.5 °F -7.6 °F 85% 29.61 in 5.0 mi NW 15.0 mph - N/A   Overcast
9:53 PM -4.0 °F -24.5 °F -7.6 °F 85% 29.61 in 4.0 mi NW 15.0 mph - N/A Snow Light Snow
10:00 PM -4.0 °F -24.5 °F -7.6 °F 85% 29.61 in 4.0 mi WNW 15.0 mph - N/A Snow Light Snow
10:13 PM -4.0 °F -25.8 °F -7.6 °F 85% 29.61 in 6.0 mi NW 17.3 mph - N/A Snow Light Snow
10:17 PM -4.0 °F -25.8 °F -7.6 °F 85% 29.61 in 7.0 mi NW 17.3 mph - N/A   Overcast
11:00 PM -2.2 °F -22.2 °F -5.8 °F 85% 29.61 in 9.0 mi NW 15.0 mph - N/A   Overcast
11:23 PM -2.2 °F -22.2 °F -5.8 °F 85% 29.61 in 9.0 mi NW 15.0 mph - N/A Snow Light Snow
11:33 PM -2.2 °F -22.2 °F -5.8 °F 85% 29.61 in 9.0 mi NW 15.0 mph - N/A   Overcast